RH
57 48 90 100 99 74 42 48 51 48 41 31 24 25 36 29 23 20 19 17 17 20 20 28 43 50 54 53 50 49 53 53 53 55 58 57 62 61 59 57 52 50 47 50 58 74 70 56 62 64 64 70 74 75
44 38 24 98 100 99 48 36 38 37 28 25 25 31 39 31 26 23 21 21 21 26 43 35 40 47 57 60 62 63 63 63 64 60 62 69 72 71 64 63 57 60 56 55 52 54 52 64 73 73 74 75 76 80
18 25 42 79 100 99 66 46 33 29 28 29 29 40 41 31 28 26 27 26 38 46 58 62 50 58 65 66 68 72 73 74 73 74 75 78 81 82 78 73 70 68 64 61 55 55 59 66 68 70 72 73 71 80
37 47 81 100 99 100 79 65 48 35 36 34 41 47 39 35 35 33 34 53 58 68 68 74 69 71 79 85 90 94 95 91 90 88 89 94 97 94 88 76 73 68 63 56 59 59 60 66 64 61 61 69 76 96
82 96 99 99 99 98 96 88 88 72 48 54 54 47 42 45 47 60 79 88 85 83 84 90 93 92 95 96 97 98 98 97 97 97 95 95 89 82 84 83 80 64 54 58 58 60 57 55 62 71 84 80 80 72
97 97 97 98 97 98 98 98 97 96 95 92 67 54 59 65 89 88 98 93 99 97 98 98 98 97 97 96 96 96 97 97 97 93 90 90 86 84 82 82 70 54 54 50 58 57 68 85 88 100 92 97 98 88
97 97 97 97 98 98 97 96 97 98 96 91 96 89 97 98 97 96 96 93 92 98 97 98 97 94 95 96 96 96 97 96 96 94 86 80 80 97 99 100 52 52 50 55 68 67 95 99 83 77 95 72 62 63
95 96 96 96 97 98 98 97 98 96 97 96 96 96 97 97 98 96 97 97 97 98 97 96 96 89 80 88 96 96 95 95 94 94 91 77 84 91 96 48 47 43 41 50 62 68 67 82 84 79 80 76 53 28
96 97 96 96 97 97 96 97 98 96 96 98 97 98 98 97 96 94 96 96 97 97 96 95 99 91 91 81 81 92 95 96 88 82 76 79 88 83 38 38 44 47 53 43 40 40 43 55 57 65 59 30 20 18
96 95 96 96 97 97 97 97 97 97 97 95 95 96 97 98 97 96 96 97 96 97 96 97 96 93 92 87 89 89 90 89 87 83 79 79 68 33 35 39 37 36 39 37 30 32 44 55 69 28 22 21 19 17
96 96 96 96 96 96 96 96 96 96 96 96 97 96 95 97 96 97 96 97 96 97 98 100 100 95 95 95 96 96 96 91 84 86 78 76 40 32 31 32 34 36 31 21 18 31 38 62 32 23 21 20 20 24
96 96 95 95 96 96 96 95 95 95 95 95 95 96 96 96 96 95 96 95 91 91 87 89 92 97 95 96 99 97 93 82 80 90 86 68 35 40 40 42 38 32 25 16 16 22 37 52 30 25 22 20 22 28
94 94 96 94 94 96 97 95 95 96 93 93 87 85 88 90 87 90 66 62 57 41 41 43 55 57 72 74 74 74 79 89 84 85 71 37 44 49 43 35 36 20 18 19 36 54 30 25 25 34 38 36 37 35
78 90 93 95 94 95 98 96 96 95 93 67 54 48 41 40 51 53 44 40 37 32 34 36 42 50 58 66 65 65 81 77 84 82 44 45 51 43 40 32 24 23 24 24 26 33 37 39 39 37 37 37 37 25
86 75 74 84 93 96 96 96 97 96 93 89 72 56 57 56 55 52 52 46 50 55 54 58 62 58 58 56 53 58 67 75 76 49 49 54 49 53 36 32 30 31 31 28 26 37 38 38 38 36 29 20 19 33
87 60 44 42 66 91 95 95 94 97 97 92 67 59 50 47 43 41 43 57 61 64 63 59 50 42 43 40 45 50 73 50 37 48 57 61 54 48 45 41 38 36 35 39 41 42 44 37 23 21 21 27 37 47
90 78 53 43 28 38 54 93 98 96 97 96 89 66 53 46 51 55 53 60 58 55 43 35 30 31 36 38 41 42 34 37 41 42 43 43 40 38 40 41 45 47 46 47 47 41 27 30 35 38 40 40 45 49
87 78 62 47 28 26 35 50 86 96 96 97 99 94 88 81 66 58 62 54 46 42 40 40 37 35 34 33 35 42 49 52 48 40 35 40 42 44 46 45 46 51 50 41 33 42 44 43 48 55 58 57 57 63
85 77 73 57 38 28 27 26 35 38 49 64 90 82 78 95 94 76 70 59 56 59 58 49 48 38 41 48 46 51 55 49 42 45 46 45 45 44 44 47 43 35 43 50 52 58 61 61 62 70 73 73 70 67
88 91 92 83 68 58 41 32 27 24 22 33 64 86 79 76 80 97 87 73 67 74 67 60 39 46 57 64 59 46 45 45 41 36 34 38 42 31 26 28 39 47 49 55 62 66 65 65 71 74 72 72 75 80
90 88 89 85 82 78 69 59 49 42 34 28 24 31 49 80 78 92 97 94 82 71 44 41 50 57 66 60 54 48 46 44 40 42 44 31 28 36 40 47 56 62 68 68 73 72 76 72 67 67 78 89 95 96
83 81 87 83 81 75 68 63 64 62 58 52 44 54 63 79 64 67 95 97 92 56 44 59 61 63 60 53 55 48 42 39 45 40 34 38 42 47 56 64 68 71 76 78 76 71 68 70 83 96 97 97 98 96
96 89 87 93 90 79 68 63 65 68 66 60 56 53 48 62 70 61 64 60 56 56 72 65 64 61 55 50 46 42 41 45 38 40 45 48 49 61 61 64 71 73 71 68 68 68 79 96 99 100 99 97 95 92
100 95 95 88 81 75 64 62 64 60 61 65 63 63 59 58 77 76 61 56 60 70 68 64 57 48 48 43 43 47 45 40 42 44 51 47 56 60 58 65 72 74 66 62 67 91 97 100 100 99 98 96 94 93
85 71 65 69 66 67 70 71 72 77 75 70 72 70 74 72 59 56 55 55 56 53 48 45 44 42 33 27 32 35 37 39 41 47 58 63 64 61 69 73 62 60 58 68 91 89 91 96 97 95 97 97 96 96
79 81 82 86 81 76 79 82 92 95 86 82 81 79 74 86 80 70 61 55 66 60 51 49 48 43 40 36 37 39 39 42 46 61 68 75 77 75 66 53 48 56 72 92 92 85 77 83 85 83 90 92 94 96
80 89 83 81 78 78 92 97 95 94 97 98 94 96 93 99 89 72 67 70 62 58 58 59 59 52 46 44 44 45 49 56 73 79 82 88 86 72 57 53 59 68 86 95 92 79 69 69 72 75 77 84 82 82
93 83 83 79 82 94 91 100 96 80 97 97 100 96 98 99 87 80 78 76 74 69 62 53 50 56 66 74 80 87 91 92 95 96 98 93 81 71 62 65 67 88 94 98 90 78 74 70 66 65 70 74 76 78
82 75 75 77 82 91 80 93 98 86 70 98 98 98 97 92 88 78 55 49 67 84 87 90 94 92 92 92 93 93 93 94 93 90 85 73 65 62 60 63 88 96 97 96 93 85 85 76 68 69 72 72 76 79
80 76 79 91 79 74 85 99 97 97 97 98 98 98 90 64 56 69 82 89 89 90 86 83 85 90 91 92 94 99 98 92 86 79 68 60 53 58 62 83 96 97 97 90 90 95 93 91 95 89 83 82 84 90
74 77 79 85 97 98 98 97 97 97 97 98 78 55 57 68 76 82 93 96 88 82 79 76 78 77 78 80 79 72 76 84 82 74 63 61 63 70 87 97 96 96 97 93 95 96 97 97 97 98 98 98 99 100
54 68 74 76 93 83 82 85 81 81 67 63 66 74 76 85 97 97 94 81 81 74 72 83 91 93 92 93 92 89 78 69 65 67 70 77 89 98 98 97 96 97 98 98 98 98 98 98 99 99 98 99 99 98
38 38 40 44 44 48 50 56 61 67 69 74 79 76 72 83 97 93 82 78 77 85 97 97 94 94 93 89 88 89 90 87 84 84 86 91 94 95 96 97 97 98 98 98 98 98 98 99 98 98 98 98 98 98
Wind_Speed
64 68 72 72 73 66 65 63 60 56 53 50 48 44 41 38 36 34 31 31 29 27 27 25 25 24 23 24 23 22 20 21 19 19 15 13 12 12 12 12 9 9 6 6 7 8 10 11 13 11 14 17 20 23
68 70 69 73 73 64 63 62 61 57 54 51 49 46 42 40 38 35 34 32 31 29 23 23 25 27 29 27 24 24 26 24 16 14 13 10 11 10 12 9 15 13 15 11 14 7 14 18 21 24 25 28 31 33
64 66 65 68 72 66 60 61 60 56 54 51 49 46 42 41 39 37 32 33 31 29 27 28 31 31 30 26 26 24 23 21 19 19 21 21 21 20 20 19 21 23 22 23 24 27 28 30 30 32 37 40 39 37
56 60 60 70 73 66 60 58 58 56 53 50 48 45 42 41 39 37 31 31 31 29 29 31 28 26 31 32 33 32 28 26 27 27 27 28 27 21 23 25 23 20 23 31 35 34 34 35 40 42 40 34 37 39
31 43 61 69 65 53 48 49 48 49 50 47 46 44 41 39 37 34 32 32 32 32 26 25 27 33 34 31 27 26 24 22 21 22 23 24 23 23 30 32 37 30 28 29 34 26 30 34 33 34 33 39 36 37
36 33 41 45 44 51 50 46 44 44 47 46 43 41 37 37 35 33 31 35 40 41 34 31 26 28 25 17 18 17 18 22 20 21 26 28 28 27 21 26 28 29 32 29 31 31 27 28 32 33 39 35 37 37
33 41 42 46 44 47 46 41 44 37 40 41 37 39 38 38 42 39 39 39 32 32 28 21 23 29 26 23 21 21 21 23 21 26 30 29 28 28 36 34 35 32 29 25 27 25 30 34 37 28 28 33 33 34
19 23 24 30 41 50 50 40 39 37 37 41 43 45 46 45 45 40 33 19 20 22 24 14 12 12 10 15 16 18 20 18 20 23 26 25 26 26 27 36 30 27 26 27 27 27 29 29 30 30 29 30 21 16
14 20 23 23 20 22 28 39 45 41 38 31 25 28 29 31 31 29 25 32 24 19 11 15 16 13 15 15 15 15 15 15 19 22 26 23 25 21 32 27 24 25 29 30 29 28 28 26 26 25 20 16 16 16
11 13 12 18 19 21 23 26 26 26 25 24 18 20 22 31 23 18 19 24 20 22 25 20 17 14 12 15 17 13 15 15 13 16 16 21 30 26 17 20 24 25 25 27 28 26 23 23 15 15 16 19 21 27
8 11 13 13 14 14 14 19 23 24 28 36 38 22 20 24 22 25 13 16 16 13 22 31 27 20 21 18 16 10 8 6 7 12 12 9 17 15 18 22 24 23 21 21 22 21 20 16 16 20 23 26 31 36
2 10 11 10 10 8 11 13 13 14 16 20 24 24 21 22 13 13 15 11 10 12 10 15 17 18 17 17 14 9 9 7 6 6 7 6 14 17 15 15 15 18 18 18 18 17 17 17 23 27 30 35 42 45
10 3 11 14 12 8 5 9 11 12 11 13 15 14 8 8 7 7 11 10 10 10 9 10 12 15 13 13 8 8 7 7 4 5 6 14 11 14 14 15 17 16 13 12 12 15 18 23 28 34 40 43 47 51
5 6 2 7 14 12 9 5 11 12 14 15 13 13 9 8 10 11 13 13 10 10 10 10 11 11 10 11 7 6 7 5 5 7 12 13 9 13 14 17 16 13 13 15 17 21 26 31 36 40 42 46 50 52
5 4 2 2 2 8 9 12 7 11 13 11 7 6 10 7 8 11 12 11 11 11 10 12 11 8 9 6 6 5 5 5 7 6 8 9 10 13 16 19 21 24 26 28 30 31 33 37 41 45 48 46 39 39
8 5 4 4 5 6 9 8 11 9 11 11 7 6 7 10 8 7 8 10 11 12 12 10 7 5 6 5 7 7 5 6 9 12 13 15 14 17 21 25 28 30 32 34 34 37 40 43 42 42 41 39 39 40
5 4 2 2 3 9 14 15 13 17 8 6 13 11 7 7 8 8 12 14 15 13 11 6 6 6 6 5 6 9 10 9 12 13 15 18 22 26 28 29 31 33 34 35 37 40 39 38 39 41 42 41 41 40
5 6 6 5 4 5 8 15 19 9 5 6 8 12 14 13 6 13 15 15 12 11 9 6 5 7 5 8 10 9 9 12 15 18 22 24 27 28 30 31 32 34 35 36 34 35 39 40 41 41 40 40 41 43
7 7 6 5 5 4 4 4 8 6 8 9 7 5 7 10 17 15 18 17 13 11 11 10 6 6 6 7 6 8 12 17 21 23 23 24 25 28 31 33 33 30 29 32 36 39 41 41 41 40 41 43 46 48
8 7 5 4 4 4 3 2 2 3 2 4 8 7 2 3 11 19 23 23 18 14 16 22 16 7 8 8 10 13 17 20 22 23 23 26 29 30 29 25 26 30 34 38 39 41 43 41 39 42 45 47 48 48
11 9 7 5 4 4 3 2 3 1 2 4 4 9 14 13 6 7 20 29 27 25 23 20 11 6 9 12 15 19 21 23 24 27 30 29 26 24 26 29 32 34 37 39 42 41 40 43 45 46 46 46 45 43
13 9 7 6 6 5 4 3 2 3 4 4 5 4 7 9 11 11 12 20 26 25 23 12 9 11 15 16 19 21 22 23 24 22 23 26 28 28 30 33 35 37 38 37 38 41 44 45 44 44 42 39 39 39
16 10 9 8 6 4 4 3 3 3 5 8 7 8 8 10 12 8 11 14 20 24 20 14 14 16 20 20 21 21 22 21 19 22 26 28 27 28 33 34 33 33 36 38 40 42 42 41 38 37 38 36 35 33
14 12 9 5 7 6 5 5 3 4 7 5 5 8 8 8 6 9 10 6 4 8 12 16 18 20 19 16 18 20 17 18 22 24 29 29 28 29 30 30 31 35 39 40 40 40 37 36 36 33 31 31 30 30
9 7 7 7 8 8 11 12 10 10 10 11 11 10 8 5 7 13 14 7 4 6 8 9 11 11 13 17 17 18 20 22 25 27 31 29 28 28 27 30 33 35 37 38 37 34 33 31 29 27 27 27 27 26
7 6 5 6 7 9 10 10 12 10 12 13 9 10 10 9 13 6 8 8 6 5 6 7 11 14 16 16 19 22 26 27 31 33 31 29 28 28 31 34 34 34 35 35 31 29 28 27 26 25 23 22 22 20
12 8 7 6 8 11 12 14 8 8 9 6 10 7 6 5 5 7 4 6 6 6 8 12 16 19 21 22 24 26 29 33 35 32 27 25 25 28 32 34 35 35 33 29 28 27 25 24 22 21 20 18 17 16
17 17 13 12 9 11 7 10 12 11 7 5 6 5 3 4 2 1 4 7 9 14 18 20 23 25 28 30 32 34 34 32 27 24 22 22 24 28 30 32 33 32 28 26 25 23 22 21 19 18 17 16 15 15
4 6 7 11 12 10 9 11 10 9 9 6 2 5 4 3 6 9 12 15 18 20 23 24 24 25 26 25 24 24 24 22 20 19 20 22 23 26 28 28 27 25 21 19 21 21 20 19 17 16 15 14 14 15
9 9 8 9 10 10 12 11 2 3 4 3 3 3 6 9 11 12 16 19 20 17 18 20 19 18 17 16 16 18 20 20 21 23 24 25 26 26 24 23 21 18 17 16 15 16 16 16 16 16 16 16 16 17
8 8 12 8 4 4 7 8 8 5 3 3 6 7 8 12 16 18 17 13 15 14 14 16 17 17 18 24 25 23 21 22 22 24 25 25 24 21 20 18 17 14 14 13 13 13 13 13 14 14 15 16 16 16
9 8 8 7 5 4 4 4 5 7 7 6 6 9 14 16 15 11 10 12 12 12 13 17 19 26 29 28 26 23 21 20 20 21 20 18 17 17 15 13 12 12 12 13 14 14 13 14 15 16 16 17 17 17
3 3 3 2 2 3 4 5 4 5 7 9 12 13 13 11 8 9 10 10 11 13 17 21 28 26 26 23 19 16 15 15 14 15 14 13 13 13 12 10 10 10 11 13 14 14 14 15 15 16 16 15 14 14
Wind_Direction
251 248 241 239 240 237 236 237 239 240 242 244 245 245 244 244 245 246 244 245 246 249 254 258 262 264 264 259 260 265 265 260 262 262 258 252 234 227 237 234 239 246 244 228 238 230 259 250 265 264 277 280 277 277
251 248 240 233 234 234 234 235 235 237 237 237 239 240 240 241 243 242 242 243 244 245 246 255 260 263 259 255 253 256 260 266 261 254 239 229 227 230 236 243 251 248 244 255 241 245 272 280 280 284 288 293 294 295
242 240 229 229 226 230 225 232 235 233 232 233 233 235 236 238 239 241 239 241 243 246 253 253 257 257 254 253 254 252 253 255 257 257 258 259 255 261 254 261 259 257 258 251 259 264 268 273 279 285 292 294 297 296
229 220 216 216 222 225 217 225 230 231 231 230 230 232 231 233 235 235 233 239 241 247 253 258 257 250 249 248 250 253 257 256 254 251 251 255 256 266 265 266 262 258 266 276 274 275 277 272 277 280 285 293 297 294
213 214 210 212 220 213 218 222 222 228 230 228 229 229 227 227 228 231 234 239 245 245 253 265 254 247 246 241 238 246 249 250 247 249 260 262 265 268 271 271 266 278 286 278 280 285 281 279 277 279 278 291 286 285
190 201 199 205 195 206 209 213 221 226 231 225 222 222 220 221 223 230 238 245 255 254 242 242 250 247 245 235 228 221 239 242 249 258 260 262 268 273 269 270 285 297 299 297 290 293 288 280 279 280 291 289 284 294
150 172 190 199 208 209 211 217 215 222 222 211 211 213 214 221 224 224 243 247 236 215 230 236 249 248 249 242 244 246 247 245 258 262 267 268 271 270 273 270 301 302 297 293 285 290 279 278 285 288 285 287 287 292
87 113 134 161 185 199 209 215 216 216 216 220 224 232 231 236 233 228 212 197 190 208 214 224 225 196 208 227 230 231 240 240 251 261 268 271 272 267 269 301 304 302 299 292 290 288 286 288 290 291 289 290 284 280
130 125 120 120 130 152 181 205 211 221 224 218 213 218 219 215 211 221 215 211 214 196 203 217 218 201 207 218 221 223 238 251 260 263 269 273 268 258 305 299 296 289 285 287 291 295 294 292 288 285 276 266 272 284
106 117 138 155 146 141 148 153 160 185 193 210 195 174 190 194 207 217 221 218 225 238 228 227 213 218 224 205 211 231 260 250 252 260 270 265 270 306 304 289 287 288 293 300 304 302 295 292 275 252 257 269 283 296
135 120 115 113 121 123 140 181 186 188 187 168 168 168 183 183 194 202 196 190 198 205 221 227 237 253 232 221 229 232 228 224 240 247 247 256 287 308 292 284 285 293 300 301 300 297 295 280 255 262 269 279 293 303
253 140 134 124 114 120 125 125 134 149 160 173 181 184 168 168 171 180 180 188 185 199 203 198 208 215 228 243 236 232 234 226 233 224 226 255 304 301 301 304 306 299 292 287 291 299 296 262 264 277 291 296 297 299
331 212 206 179 150 145 135 143 138 125 142 149 160 172 168 186 187 186 188 174 181 166 186 211 216 214 210 210 199 194 196 206 216 223 244 279 292 304 318 312 290 287 285 286 287 284 276 278 284 288 287 289 293 295
34 26 53 178 181 152 148 136 145 148 149 161 167 171 183 175 195 197 196 200 201 205 199 186 183 177 171 169 167 178 196 207 221 228 265 290 309 307 292 273 281 304 310 305 296 284 281 282 285 289 294 295 297 299
126 122 114 338 155 165 168 161 169 167 153 161 156 187 205 186 181 190 195 194 189 185 179 173 174 172 163 165 168 184 195 218 225 263 312 302 300 270 270 277 284 293 298 297 295 299 300 300 299 300 301 300 299 302
145 135 124 163 204 213 200 201 191 189 187 176 184 169 175 197 195 181 174 178 180 178 177 181 170 162 177 185 188 192 209 230 292 311 307 299 286 280 284 286 286 289 293 300 301 300 301 304 307 307 305 303 302 302
152 172 162 157 175 193 203 206 206 203 212 182 191 184 159 147 163 182 183 173 171 176 182 173 159 169 155 199 206 215 248 293 287 283 283 283 281 280 283 288 294 298 299 300 302 305 307 307 306 305 305 304 300 298
187 196 193 180 189 198 200 210 226 246 175 165 177 202 214 215 198 191 184 183 189 183 187 191 200 201 206 240 278 297 284 278 273 273 273 274 281 293 297 298 299 302 304 303 306 308 308 307 308 309 308 306 304 304
184 188 189 186 181 194 192 198 221 243 256 256 258 264 234 228 216 205 205 205 202 199 220 233 232 250 292 306 285 273 272 275 279 283 291 296 298 298 299 301 303 303 303 308 309 309 310 312 312 311 309 308 307 308
191 203 194 173 163 158 156 166 208 223 263 238 227 227 183 260 235 225 202 210 211 217 236 244 249 311 310 304 283 279 281 285 289 295 299 302 303 303 308 310 308 307 307 308 308 310 311 311 313 310 309 308 307 306
186 178 191 194 187 183 169 158 162 168 199 229 229 231 232 245 282 261 238 204 204 224 238 253 277 287 291 284 277 277 282 289 296 299 303 307 309 314 314 312 310 309 307 309 311 312 313 313 312 310 309 309 308 309
180 181 187 198 207 215 236 255 296 305 280 260 268 282 259 241 240 256 256 223 225 226 242 270 266 270 284 283 277 281 288 291 297 302 305 307 312 313 312 311 309 309 309 312 313 313 314 314 313 312 312 313 312 312
176 183 196 210 218 225 265 290 285 286 283 295 296 286 291 265 262 260 257 254 249 252 259 266 267 273 278 283 290 290 290 295 301 305 305 304 303 309 313 313 312 312 313 314 314 315 316 316 316 316 316 316 315 315
191 191 203 216 223 226 238 224 237 292 307 297 320 317 295 279 274 263 254 272 317 252 240 244 262 279 289 288 278 279 284 294 302 306 311 305 302 310 315 314 315 315 315 316 320 321 322 322 323 322 321 320 319 318
183 201 226 236 243 253 263 274 281 280 294 293 294 290 279 270 252 250 261 270 277 229 236 255 265 268 277 278 277 278 285 291 305 312 312 307 307 311 312 312 316 317 319 322 325 326 326 329 330 328 326 325 325 327
196 220 232 240 253 273 278 272 281 295 277 274 260 251 282 266 239 234 233 293 279 271 276 271 273 286 295 288 281 282 288 295 300 308 307 303 305 310 313 317 320 323 324 326 327 332 334 334 336 337 341 341 342 346
218 217 236 266 296 295 278 289 298 287 291 258 277 275 239 222 210 217 243 260 276 283 288 287 289 291 292 291 291 291 294 296 299 300 298 298 303 310 317 320 323 323 326 328 333 336 337 341 346 348 354 359 5 13
236 243 261 278 272 295 284 278 284 295 301 264 229 199 195 186 184 255 291 299 299 294 294 296 299 299 298 296 294 293 293 294 294 295 295 298 308 314 316 316 318 321 324 328 330 334 340 346 349 354 0 6 11 11
221 236 242 250 259 262 269 290 286 260 273 284 183 194 218 277 290 300 307 308 307 307 304 301 301 301 300 299 298 295 292 290 287 285 288 296 303 307 309 312 314 316 319 323 323 331 340 340 343 348 350 350 349 349
242 266 284 275 245 247 275 275 229 177 197 203 220 272 284 287 292 297 303 307 307 305 307 309 310 309 309 310 308 307 305 302 299 299 302 305 306 308 310 312 313 314 317 319 323 323 324 332 339 341 342 343 343 343
250 252 267 310 298 242 228 205 197 205 206 266 282 281 284 289 294 302 304 305 309 314 320 319 319 317 319 318 311 302 298 296 296 299 300 303 307 309 312 317 313 310 312 317 318 319 325 332 338 341 342 342 341 341
245 243 245 235 215 227 210 210 227 246 250 250 276 298 298 296 296 296 300 308 312 315 315 317 317 318 319 318 317 315 307 300 298 299 301 307 310 310 311 309 308 309 314 320 324 327 329 331 333 334 335 336 338 339
157 161 161 178 232 278 277 271 271 266 263 270 287 301 304 296 274 290 302 304 307 310 314 320 325 327 326 327 330 329 325 322 319 318 321 321 320 323 326 323 316 315 320 322 323 323 325 328 331 333 336 339 343 347